EW8291 Weather Reports


Display with metric or nautical units.
time (UTC)temp
F
wind
direction
speed
MPH
gust
MPH
rain 1hr
in
rain 24hr
in
rain mn
in
humidity
%
barometer
mb
20180719055109 66 313 8.0 9.0 0.00 0.10 0.00 100 1015.0
20180719054609 65 329 7.0 13.0 0.00 0.10 0.00 100 1015.0
20180719054110 65 299 6.0 13.0 0.00 0.10 0.00 100 1015.0
20180719053608 65 292 7.0 9.0 0.00 0.10 0.00 100 1015.0
20180719053109 65 319 7.0 10.0 0.00 0.10 0.00 100 1015.0
20180719052609 65 315 6.0 7.0 0.00 0.10 0.00 100 1015.0
20180719052108 65 329 5.0 9.0 0.00 0.10 0.00 100 1015.0
20180719051609 65 334 6.0 7.0 0.00 0.10 0.00 100 1015.0
20180719051109 66 333 6.0 7.0 0.00 0.10 0.00 100 1015.0
20180719050608 66 304 5.0 5.0 0.00 0.10 0.00 100 1015.0
20180719050110 66 338 7.0 7.0 0.00 0.10 0.00 100 1015.0
20180719045610 66 317 5.0 7.0 0.00 0.10 0.00 100 1015.0
20180719045109 65 328 4.0 7.0 0.00 0.10 0.00 100 1015.0
20180719044609 65 345 6.0 9.0 0.00 0.10 0.00 100 1015.0
20180719044109 65 338 6.0 7.0 0.00 0.10 0.00 100 1015.0
20180719043611 65 333 5.0 7.0 0.00 0.10 0.00 100 1015.0
20180719043109 65 334 5.0 9.0 0.00 0.10 0.00 100 1015.0
20180719042609 65 329 6.0 10.0 0.00 0.10 0.00 100 1015.0
20180719042109 65 333 6.0 7.0 0.00 0.10 0.00 100 1015.0
20180719041609 65 328 6.0 9.0 0.00 0.10 0.00 100 1015.0
20180719041108 65 292 6.0 9.0 0.00 0.10 0.00 100 1015.0
20180719040609 65 333 6.0 10.0 0.00 0.10 0.00 100 1014.0
20180719040108 64 338 6.0 8.0 0.00 0.10 0.00 100 1014.0
20180719035609 64 338 7.0 8.0 0.00 0.10 0.00 100 1014.0
20180719035108 64 338 5.0 8.0 0.00 0.10 0.00 100 1014.0
20180719034609 64 338 7.0 9.0 0.00 0.10 0.00 100 1014.0
20180719033609 64 338 7.0 8.0 0.00 0.10 0.00 100 1015.0
20180719033108 65 338 7.0 10.0 0.00 0.10 0.00 100 1015.0
20180719032609 65 356 8.0 10.0 0.00 0.10 0.00 100 1015.0
20180719032109 65 303 7.0 10.0 0.00 0.10 0.00 100 1015.0
20180719031609 65 334 7.0 10.0 0.00 0.10 0.00 100 1015.0
20180719031109 65 323 5.0 7.0 0.00 0.10 0.00 100 1015.0
20180719030609 65 318 7.0 9.0 0.00 0.10 0.00 100 1016.0
20180719030109 65 328 4.0 8.0 0.00 0.10 0.00 100 1016.0
20180719025610 65 338 5.0 9.0 0.00 0.10 0.00 100 1016.0
20180719025109 65 322 5.0 7.0 0.00 0.10 0.00 100 1015.0
20180719024609 65 323 3.0 8.0 0.00 0.10 0.00 100 1015.0
20180719024109 65 337 5.0 7.0 0.00 0.10 0.00 100 1015.0
20180719023608 65 338 7.0 9.0 0.00 0.10 0.00 100 1015.0
20180719023108 65 328 5.0 9.0 0.00 0.10 0.00 100 1015.0
20180719022611 65 312 5.0 8.0 0.00 0.10 0.00 100 1015.0
20180719022109 65 306 5.0 9.0 0.00 0.10 0.00 100 1015.0
20180719021609 65 332 4.0 9.0 0.00 0.10 0.00 100 1015.0
20180719021109 65 329 7.0 10.0 0.00 0.10 0.00 100 1015.0
20180719020609 65 337 6.0 7.0 0.00 0.10 0.00 100 1015.0
20180719020109 65 345 6.0 8.0 0.00 0.10 0.00 100 1015.0
20180719015609 65 318 7.0 10.0 0.00 0.10 0.00 100 1015.0
20180719015109 65 334 6.0 10.0 0.00 0.10 0.00 100 1015.0
20180719014610 64 319 6.0 9.0 0.00 0.10 0.00 100 1015.0
20180719014109 64 302 6.0 9.0 0.00 0.10 0.00 100 1015.0
20180719013609 64 324 5.0 8.0 0.00 0.10 0.00 100 1014.0
20180719013108 64 338 6.0 7.0 0.00 0.10 0.00 100 1014.0
20180719012610 65 328 6.0 8.0 0.00 0.10 0.00 100 1014.0
20180719012108 65 338 6.0 8.0 0.00 0.10 0.00 100 1015.0
20180719011610 65 323 6.0 8.0 0.00 0.10 0.00 100 1015.0
20180719011108 65 343 5.0 10.0 0.00 0.10 0.00 100 1015.0
20180719010609 65 316 6.0 7.0 0.00 0.10 0.00 100 1015.0
20180719010109 65 308 5.0 7.0 0.00 0.10 0.00 100 1015.0
20180719005609 65 334 4.0 7.0 0.00 0.10 0.00 100 1015.0
20180719005109 65 329 3.0 6.0 0.00 0.10 0.00 100 1015.0
20180719004613 65 317 4.0 8.0 0.00 0.10 0.00 100 1015.0
20180719004109 64 333 5.0 7.0 0.00 0.10 0.00 100 1015.0
20180719003608 64 338 5.0 6.0 0.00 0.10 0.00 100 1014.0
20180719003109 64 348 5.0 7.0 0.00 0.10 0.00 100 1014.0
20180719002608 64 343 3.0 5.0 0.00 0.10 0.00 100 1014.0
20180719002109 64 331 4.0 6.0 0.00 0.10 0.00 100 1015.0
20180719001608 64 324 5.0 6.0 0.00 0.10 0.00 100 1015.0
20180719001108 64 292 4.0 7.0 0.00 0.10 0.00 100 1015.0
20180719000608 64 297 4.0 6.0 0.00 0.10 0.00 100 1015.0
20180719000110 64 338 3.0 5.0 0.00 0.10 0.00 100 1015.0
20180718235609 64 338 3.0 5.0 0.00 0.10 0.00 100 1015.0
20180718235109 64 338 5.0 7.0 0.00 0.10 0.00 100 1015.0
20180718234608 64 338 4.0 5.0 0.00 0.10 0.00 100 1015.0
20180718234109 64 343 5.0 6.0 0.00 0.10 0.00 100 1015.0
20180718233609 64 338 3.0 6.0 0.00 0.10 0.00 100 1015.0
20180718233109 64 352 3.0 5.0 0.00 0.10 0.00 100 1015.0
20180718232609 64 17 3.0 5.0 0.00 0.10 0.00 100 1015.0
20180718232109 64 349 3.0 5.0 0.00 0.10 0.00 100 1015.0
20180718231609 64 22 2.0 5.0 0.00 0.10 0.00 100 1015.0
20180718231109 64 22 3.0 5.0 0.00 0.10 0.00 100 1015.0
20180718230608 64 22 3.0 6.0 0.00 0.10 0.00 100 1015.0
20180718230109 64 12 2.0 5.0 0.00 0.10 0.00 100 1015.0
20180718225609 64 342 3.0 5.0 0.00 0.10 0.00 100 1015.0
20180718225109 64 338 3.0 5.0 0.00 0.10 0.00 100 1015.0
20180718224609 65 338 5.0 7.0 0.00 0.10 0.00 100 1015.0
20180718224108 65 338 6.0 9.0 0.00 0.10 0.00 100 1015.0
20180718223608 65 321 5.0 7.0 0.00 0.10 0.00 100 1015.0
20180718223109 65 338 6.0 7.0 0.00 0.10 0.00 100 1015.0
20180718222609 65 324 6.0 7.0 0.00 0.10 0.00 100 1015.0
20180718222109 65 325 5.0 7.0 0.00 0.10 0.00 100 1015.0
20180718221609 65 308 3.0 6.0 0.00 0.10 0.00 100 1015.0
20180718221111 65 328 5.0 7.0 0.00 0.10 0.00 100 1015.0
20180718220609 65 305 5.0 6.0 0.00 0.10 0.00 100 1015.0
20180718220108 65 320 5.0 8.0 0.00 0.10 0.00 100 1015.0
20180718215609 65 351 6.0 7.0 0.00 0.10 0.10 100 1015.0
20180718215109 65 328 5.0 8.0 0.00 0.10 0.10 100 1015.0
20180718214609 65 338 3.0 7.0 0.00 0.10 0.10 100 1015.0
20180718214109 65 337 6.0 9.0 0.00 0.10 0.10 100 1015.0
20180718213609 65 22 5.0 7.0 0.00 0.10 0.10 100 1015.0
20180718213110 65 343 5.0 7.0 0.00 0.10 0.10 100 1015.0
20180718212609 65 349 3.0 9.0 0.00 0.10 0.10 100 1015.0
20180718212108 65 338 4.0 7.0 0.00 0.10 0.10 100 1015.0
20180718211609 65 345 5.0 7.0 0.00 0.10 0.10 100 1015.0
20180718211108 65 341 5.0 12.0 0.00 0.10 0.10 100 1015.0
20180718210609 65 352 6.0 7.0 0.00 0.10 0.10 100 1015.0
20180718210108 65 336 7.0 12.0 0.00 0.10 0.10 100 1015.0
20180718205609 65 338 6.0 10.0 0.00 0.10 0.10 100 1015.0
20180718205108 65 325 6.0 9.0 0.00 0.10 0.10 100 1015.0
20180718204608 65 338 7.0 10.0 0.00 0.10 0.10 100 1015.0
20180718204109 65 0 7.0 9.0 0.00 0.10 0.10 100 1015.0
20180718203608 66 338 7.0 9.0 0.00 0.10 0.10 100 1015.0
20180718203109 66 338 6.0 9.0 0.00 0.10 0.10 100 1015.0
20180718202609 66 338 8.0 10.0 0.00 0.10 0.10 100 1015.0
20180718202109 66 338 8.0 10.0 0.00 0.10 0.10 100 1015.0
20180718201608 66 330 7.0 10.0 0.00 0.10 0.10 100 1015.0
20180718201109 66 324 7.0 10.0 0.00 0.10 0.10 100 1015.0
20180718200609 66 338 9.0 12.0 0.00 0.10 0.10 100 1015.0
20180718200109 66 338 7.0 10.0 0.00 0.10 0.10 100 1015.0
20180718195608 66 301 7.0 13.0 0.00 0.10 0.10 100 1015.0
20180718195108 66 353 6.0 12.0 0.00 0.10 0.10 100 1015.0
20180718194609 66 342 7.0 8.0 0.00 0.10 0.10 100 1015.0
20180718194109 66 338 7.0 13.0 0.00 0.10 0.10 100 1015.0
20180718193608 66 340 6.0 12.0 0.00 0.10 0.10 100 1015.0
20180718193108 66 338 7.0 10.0 0.00 0.10 0.10 100 1015.0
20180718192609 66 338 9.0 10.0 0.00 0.10 0.10 100 1015.0
20180718192108 66 348 8.0 8.0 0.00 0.10 0.10 100 1015.0
20180718191608 66 315 9.0 9.0 0.00 0.10 0.10 100 1015.0
20180718191109 66 341 7.0 9.0 0.00 0.10 0.10 100 1015.0
20180718190609 66 315 7.0 10.0 0.00 0.10 0.10 100 1015.0
20180718190109 66 338 7.0 10.0 0.00 0.10 0.10 100 1015.0
20180718185608 66 338 7.0 8.0 0.00 0.10 0.10 100 1015.0
20180718185108 66 338 6.0 7.0 0.00 0.10 0.10 100 1014.0
20180718184611 66 338 8.0 8.0 0.00 0.10 0.10 100 1014.0
20180718184109 66 338 7.0 8.0 0.00 0.10 0.10 100 1014.0
20180718183608 66 315 6.0 8.0 0.00 0.10 0.10 100 1014.0
20180718183108 66 315 8.0 10.0 0.00 0.10 0.10 100 1014.0
20180718182608 66 324 7.0 8.0 0.00 0.10 0.10 100 1014.0
20180718182108 66 337 6.0 9.0 0.00 0.10 0.10 100 1014.0
20180718181609 66 338 7.0 9.0 0.00 0.10 0.10 100 1014.0
20180718181109 67 339 7.0 10.0 0.00 0.10 0.10 100 1014.0
20180718180609 67 338 8.0 10.0 0.00 0.10 0.10 100 1015.0
20180718180109 67 292 7.0 8.0 0.00 0.10 0.10 100 1015.0
20180718175609 67 292 7.0 7.0 0.00 0.10 0.10 100 1015.0
20180718175109 67 338 7.0 10.0 0.00 0.10 0.10 100 1014.0
20180718174609 67 338 6.0 9.0 0.00 0.10 0.10 100 1014.0
20180718174108 67 338 7.0 8.0 0.00 0.10 0.10 100 1014.0
20180718173609 67 340 7.0 9.0 0.00 0.10 0.10 100 1015.0
20180718173109 67 334 6.0 13.0 0.00 0.10 0.10 100 1015.0
20180718172609 67 338 9.0 13.0 0.00 0.10 0.10 100 1015.0
20180718172108 67 292 7.0 10.0 0.00 0.10 0.10 100 1015.0
20180718171609 67 338 8.0 9.0 0.00 0.10 0.10 100 1015.0
20180718171109 67 338 6.0 9.0 0.00 0.10 0.10 100 1015.0
20180718170609 67 352 7.0 10.0 0.00 0.10 0.10 100 1015.0
20180718170109 67 327 7.0 9.0 0.00 0.10 0.10 100 1015.0
20180718165608 67 22 8.0 8.0 0.00 0.10 0.10 100 1015.0
20180718165109 67 355 6.0 8.0 0.00 0.10 0.10 100 1015.0
20180718164608 67 339 8.0 8.0 0.00 0.10 0.10 100 1015.0
20180718164109 67 22 8.0 5.0 0.00 0.10 0.10 100 1015.0
20180718163609 67 22 8.0 5.0 0.00 0.10 0.10 100 1015.0
20180718163109 67 0 5.0 5.0 0.01 0.25 0.10 100 1015.0
20180718162609 67 0 5.0 5.0 0.01 0.25 0.10 100 1015.0
20180718162109 66 0 5.0 5.0 0.01 0.25 0.10 100 1015.0
20180718161608 66 0 5.0 5.0 0.03 0.25 0.10 100 1015.0
20180718161109 66 0 5.0 5.0 0.03 0.25 0.10 100 1015.0
20180718160608 66 0 5.0 5.0 0.03 0.25 0.10 100 1015.0
20180718160109 66 0 5.0 5.0 0.03 0.25 0.10 100 1015.0
20180718155609 66 0 5.0 5.0 0.03 0.25 0.10 100 1015.0
20180718155109 66 0 5.0 5.0 0.03 0.25 0.10 100 1015.0
20180718154609 66 0 5.0 7.0 0.03 0.25 0.10 100 1015.0
20180718154109 66 355 6.0 7.0 0.10 0.25 0.10 100 1015.0
20180718153608 65 22 5.0 8.0 0.10 0.25 0.10 100 1015.0
20180718153109 65 13 5.0 8.0 0.10 0.25 0.10 100 1015.0
20180718152609 65 27 4.0 8.0 0.10 0.25 0.10 100 1015.0
20180718152109 65 16 6.0 7.0 0.10 0.25 0.10 100 1015.0
20180718151608 65 12 6.0 10.0 0.08 0.23 0.08 100 1015.0
20180718151109 65 350 6.0 10.0 0.08 0.23 0.08 100 1015.0
20180718150609 65 16 5.0 12.0 0.08 0.23 0.08 100 1015.0
20180718150109 65 359 6.0 7.0 0.08 0.23 0.08 100 1015.0
20180718145609 65 337 5.0 7.0 0.08 0.23 0.08 100 1015.0
20180718145108 65 359 6.0 10.0 0.08 0.23 0.08 100 1015.0
20180718144609 65 5 5.0 12.0 0.08 0.23 0.08 100 1015.0
20180718144109 65 0 8.0 12.0 0.00 0.15 0.00 100 1014.0
20180718143608 65 0 8.0 12.0 0.00 0.15 0.00 100 1014.0
20180718143108 65 0 8.0 12.0 0.00 0.15 0.00 100 1014.0
20180718142608 65 0 8.0 12.0 0.00 0.15 0.00 100 1014.0
20180718142108 65 0 8.0 12.0 0.00 0.15 0.00 100 1014.0
20180718141608 65 0 8.0 12.0 0.00 0.15 0.00 100 1014.0
20180718141108 65 342 9.0 12.0 0.00 0.15 0.00 100 1014.0
20180718135606 64 2 7.0 14.0 0.00 0.15 0.00 100 1014.0
20180718135106 65 338 7.0 13.0 0.00 0.15 0.00 100 1014.0
20180718134606 64 343 8.0 13.0 0.00 0.15 0.00 100 1014.0
20180718134106 65 349 6.0 13.0 0.00 0.15 0.00 100 1014.0
20180718133605 64 356 10.0 16.0 0.00 0.15 0.00 100 1013.0
20180718133106 64 358 9.0 16.0 0.00 0.15 0.00 100 1013.0
20180718132606 64 353 11.0 15.0 0.00 0.15 0.00 100 1013.0
20180718132105 64 5 9.0 20.0 0.00 0.15 0.00 100 1013.0
20180718131606 64 2 10.0 15.0 0.00 0.15 0.00 100 1013.0
20180718131106 64 358 10.0 16.0 0.00 0.15 0.00 100 1013.0
20180718130606 65 344 10.0 16.0 0.00 0.15 0.00 100 1013.0
20180718130106 65 350 12.0 21.0 0.00 0.15 0.00 100 1013.0
20180718125606 65 338 12.0 21.0 0.00 0.15 0.00 100 1013.0
20180718125105 65 352 14.0 22.0 0.00 0.15 0.00 100 1012.0
20180718124608 66 338 13.0 28.0 0.00 0.15 0.00 100 1012.0
20180718124106 66 338 12.0 22.0 0.00 0.15 0.00 100 1012.0
20180718123606 66 341 16.0 21.0 0.00 0.15 0.00 100 1011.0
20180718123106 66 333 12.0 24.0 0.00 0.15 0.00 100 1011.0
20180718122606 67 344 16.0 18.0 0.00 0.15 0.00 100 1011.0
20180718122106 67 17 18.0 26.0 0.00 0.15 0.00 100 1011.0
20180718121606 68 8 14.0 24.0 0.00 0.15 0.00 100 1011.0
20180718121106 69 338 16.0 28.0 0.00 0.15 0.00 100 1011.0
20180718120605 70 0 18.0 30.0 0.00 0.15 0.00 100 1011.0
20180718120105 71 358 18.0 32.0 0.00 0.15 0.00 100 1011.0
20180718115606 72 341 20.0 35.0 0.00 0.15 0.00 100 1011.0
20180718115106 73 346 16.0 33.0 0.00 0.15 0.00 100 1009.0
20180718114606 73 358 18.0 35.0 0.00 0.15 0.00 100 1009.0
20180718114106 74 338 18.0 31.0 0.00 0.15 0.00 100 1009.0
20180718113606 75 341 17.0 30.0 0.00 0.15 0.00 100 1008.0
20180718113106 76 12 14.0 26.0 0.00 0.15 0.00 100 1008.0
20180718112606 76 339 16.0 30.0 0.00 0.15 0.00 100 1008.0
20180718112106 76 337 20.0 30.0 0.00 0.15 0.00 100 1010.0
20180718111622 77 355 16.0 30.0 0.00 0.15 0.00 100 1010.0
20180718111107 77 333 16.0 25.0 0.00 0.15 0.00 100 1010.0
20180718110606 77 330 16.0 26.0 0.00 0.15 0.00 100 1009.0
20180718110106 78 342 12.0 29.0 0.00 0.15 0.00 100 1009.0
20180718105606 78 320 20.0 37.0 0.00 0.15 0.00 100 1009.0
20180718105106 78 332 16.0 23.0 0.00 0.15 0.00 100 1010.0
20180718104609 78 329 16.0 26.0 0.00 0.15 0.00 100 1010.0
20180718104106 78 307 21.0 28.0 0.00 0.15 0.00 100 1010.0
20180718103606 79 322 17.0 26.0 0.00 0.15 0.00 100 1008.0
20180718103106 80 341 15.0 25.0 0.00 0.15 0.00 100 1008.0
20180718102606 80 314 17.0 37.0 0.00 0.15 0.00 100 1008.0
20180718102106 81 317 25.0 37.0 0.00 0.15 0.00 100 1009.0
20180718101606 80 338 13.0 30.0 0.00 0.15 0.00 100 1009.0
20180718101106 80 318 15.0 35.0 0.00 0.15 0.00 100 1009.0
20180718100606 81 308 18.0 31.0 0.00 0.15 0.00 100 1009.0
20180718100106 82 294 14.0 23.0 0.00 0.15 0.00 100 1009.0
20180718095606 81 323 12.0 23.0 0.00 0.15 0.00 100 1009.0
20180718095106 80 314 16.0 23.0 0.00 0.15 0.00 100 1009.0
20180718094606 79 311 19.0 29.0 0.00 0.15 0.00 100 1009.0
20180718094106 79 302 19.0 33.0 0.00 0.15 0.00 100 1009.0
20180718093605 78 302 17.0 26.0 0.00 0.15 0.00 100 1010.0
20180718093106 79 297 16.0 22.0 0.00 0.15 0.00 100 1010.0
20180718092606 80 312 18.0 28.0 0.00 0.15 0.00 100 1010.0
20180718092106 79 311 16.0 26.0 0.00 0.15 0.00 100 1010.0
20180718091607 79 337 15.0 28.0 0.00 0.15 0.00 100 1010.0
20180718091106 79 318 16.0 28.0 0.00 0.15 0.00 100 1010.0
20180718090606 78 338 15.0 23.0 0.00 0.15 0.00 100 1011.0
20180718090105 79 330 18.0 31.0 0.00 0.15 0.00 100 1011.0
20180718085605 78 301 14.0 26.0 0.00 0.15 0.00 100 1011.0
20180718085105 78 329 16.0 28.0 0.00 0.15 0.00 100 1011.0
20180718084606 78 298 15.0 25.0 0.00 0.15 0.00 100 1011.0
20180718084106 78 306 13.0 22.0 0.00 0.15 0.00 100 1011.0
20180718083606 78 338 14.0 24.0 0.00 0.15 0.00 100 1011.0
20180718083106 77 292 12.0 21.0 0.00 0.15 0.00 100 1011.0
20180718082606 78 325 10.0 21.0 0.00 0.15 0.00 100 1011.0
20180718082106 77 313 11.0 22.0 0.00 0.15 0.00 100 1011.0
20180718081606 75 292 8.0 10.0 0.00 0.15 0.00 100 1011.0
20180718081106 75 292 8.0 10.0 0.00 0.15 0.00 100 1011.0
20180718080606 75 292 8.0 10.0 0.00 0.15 0.00 100 1012.0
20180718080106 74 315 9.0 9.0 0.00 0.15 0.00 100 1012.0
20180718075606 75 338 8.0 7.0 0.00 0.15 0.00 100 1012.0
20180718075105 74 315 12.0 9.0 0.00 0.15 0.00 100 1012.0
20180718074606 73 338 7.0 9.0 0.00 0.15 0.00 100 1012.0
20180718074106 72 292 9.0 9.0 0.00 0.15 0.00 100 1012.0
20180718073606 72 305 5.0 8.0 0.00 0.15 0.00 100 1012.0
20180718073106 71 307 5.0 7.0 0.00 0.15 0.00 100 1012.0
20180718072606 71 332 7.0 9.0 0.00 0.15 0.00 100 1012.0
20180718072106 71 312 6.0 10.0 0.00 0.15 0.00 100 1012.0
20180718071607 71 315 6.0 8.0 0.00 0.15 0.00 100 1012.0
20180718071106 71 329 7.0 13.0 0.00 0.15 0.00 100 1012.0
20180718070605 71 316 7.0 12.0 0.00 0.15 0.00 100 1012.0
20180718070106 71 338 8.0 5.0 0.00 0.15 0.00 100 1012.0
20180718065606 71 292 8.0 9.0 0.00 0.15 0.00 100 1012.0
20180718065106 71 338 10.0 7.0 0.00 0.15 0.00 100 1012.0
20180718064608 70 338 5.0 3.0 0.00 0.15 0.00 100 1012.0
20180718064119 70 338 5.0 5.0 0.00 0.15 0.00 100 1012.0
20180718063606 69 315 5.0 7.0 0.00 0.15 0.00 100 1012.0
20180718063106 69 292 5.0 7.0 0.00 0.15 0.00 100 1012.0
20180718062605 68 307 6.0 7.0 0.00 0.15 0.00 100 1012.0
20180718062106 68 292 7.0 7.0 0.00 0.15 0.00 100 1012.0
20180718061606 68 292 7.0 7.0 0.00 0.15 0.00 100 1012.0
20180718061105 68 292 5.0 7.0 0.00 0.15 0.00 100 1012.0
20180718060606 67 338 5.0 9.0 0.00 0.15 0.00 100 1012.0
20180718060106 67 292 7.0 9.0 0.00 0.15 0.00 100 1012.0
20180718055606 67 315 5.0 5.0 0.00 0.15 0.00 100 1012.0